Погода в Циндао

Китай     36°09′00″N   120°28′17″E
темп.,
°C
ветер,
м/с
пор.,
м/с
влажн.,
%
обл.,
%
осадки,
мм/ч
давл.,
гПа
погр.,
м
26 января, вт
вт2623:00+6зюз1186100 0.0 102322
02:00+5сз1292100 0.0 1023160
05:00+4сз2394100 0.3 1023225
08:00+4сз2388100 0.3 1024230
11:00+6ссз475661 0.0 1026700
14:00+8с473431 0.0 1024923
17:00+6с363541 0.0 1025865
20:00+4ссв354370 0.0 1027368
27 января, ср
ср2723:00+2ссв1335100 0.0 1029182
02:00+2св233392 0.0 102894
05:00+1в124378 0.0 102748
08:00+1вюв125179 0.0 102975
11:00+5ююв123332 0.0 1029718
14:00+6юв333367 0.0 1026780
17:00+4ююв4647100 0.0 1025634
20:00+3ю3757100 0.0 1026687
28 января, чт
чт2823:00+3ююз51169100 0.0 1024713
02:00+3юз5147383 0.0 1022880
05:00+1зсз8143361 0.5 10211402
08:00−2сз9164830 0.5 10251672
11:00−2сз1016250 0.0 10282132
14:00−2сз1117210 0.0 10282193
17:00−5сз915270 0.0 10301825
20:00−6ссз714260 0.0 10321357
29 января, пт
пт2923:00−6ссз411260 0.0 1032987
02:00−6зсз25310 0.0 1031528
05:00−6юз12270 0.0 1030297
08:00−5ююз26220 0.0 1030366
11:00−1зюз37180 0.0 1029592
14:00+4сз47170 0.0 10271214
17:00+2с12230 0.0 102780
20:000всв11250 0.0 102925
30 января, сб
сб3023:000ююв12250 0.0 102928
02:000ююв233311 0.0 102760
05:000ю247029 0.0 1026104
08:00+1ю376915 0.0 1026234
11:00+5ююз49500 0.0 1026461
14:00+6ююз484428 0.0 1023469
17:00+6ююз494731 0.0 1023424
20:00+5ююз385548 0.0 1024253